Location: Caseificio
(44.7500°N, 11.0500°E)
Time: 17:12:20
(UTC+00:00)

USA 306 - Pass Details

Date: 26 May 2022
Orbit: 545 x 556 km, 54.0° (Epoch: 20 June)

Event Time Altitude Azimuth Distance (km) Brightness Sun altitude
Exits shadow 00:06:55 69° 97° (E) 595 2.9 -23.0°
Drops below altitude 10° 00:10:46 10° 57° (ENE) 1,844 6.1 -22.8°
Sets 00:13:01 0° 56° (NE) 2,745 7.1 -22.7°
